Location: Hope
(40.9110°N, 74.9680°W)
Time: 14:29:04
(UTC-04:00)

N. Korean satellite - Pass Details

Date: 01 February 2019
Orbit: 457 x 508 km, 97.2° (Epoch: 21 April)

Event Time Altitude Azimuth Distance (km) Brightness Sun altitude
Rises 18:05:12 0° 193° (SSW) 2,593 10.7 -9.5°
Reaches altitude 10° 18:07:31 10° 206° (SSW) 1,718 9.9 -9.9°
Maximum altitude 18:10:40 26° 264° (W) 1,030 9.2 -10.5°
Drops below altitude 10° 18:13:51 10° 323° (NW) 1,734 9.7 -11.1°
Sets 18:16:12 0° 336° (NNW) 2,624 10.4 -11.5°
